• In Deutschland
  • Länderverzeichnis
  • Für 7 Tage
  • Wassertemperatur
  • Satellitenkarten
  • Wetterkarte
  • Widgets
  • user-avatar
    Anmelden

    Stündliche Wetter Brisbane

    Heute, 11 Dezember, Montag

    Zeit Temperatur Niederschläge Wind Luftdruck Luftfeuchtigkeit
    00:00 +21°C° 0,1 mm 4 m/S 762 mmHg 83%
    01:00 +20°C° 0,1 mm 4 m/S 761 mmHg 85%
    02:00 +20°C° 0,1 mm 4 m/S 761 mmHg 86%
    03:00 +20°C° 0,1 mm 4 m/S 761 mmHg 87%
    04:00 +20°C° 0 mm 4 m/S 761 mmHg 88%
    05:00 +21°C° 0 mm 5 m/S 761 mmHg 82%
    06:00 +22°C° 0 mm 5 m/S 761 mmHg 77%
    07:00 +23°C° 0 mm 5 m/S 761 mmHg 72%
    08:00 +26°C° 0,1 mm 5 m/S 761 mmHg 65%
    09:00 +28°C° 0,1 mm 5 m/S 761 mmHg 59%
    10:00 +29°C° 0 mm 5 m/S 761 mmHg 54%
    11:00 +29°C° 0,1 mm 5 m/S 761 mmHg 52%
    12:00 +30°C° 0,1 mm 5 m/S 760 mmHg 49%
    13:00 +32°C° 0,1 mm 5 m/S 760 mmHg 47%
    14:00 +30°C° 0 mm 5 m/S 760 mmHg 49%
    15:00 +30°C° 0 mm 5 m/S 759 mmHg 51%
    16:00 +28°C° 0 mm 6 m/S 759 mmHg 56%
    17:00 +27°C° 0 mm 5 m/S 760 mmHg 61%
    18:00 +26°C° 0 mm 5 m/S 760 mmHg 66%
    19:00 +23°C° 0 mm 4 m/S 760 mmHg 70%
    20:00 +23°C° 0 mm 4 m/S 760 mmHg 73%
    21:00 +22°C° 0 mm 4 m/S 761 mmHg 76%
    22:00 +21°C° 0 mm 4 m/S 761 mmHg 80%
    23:00 +21°C° 0 mm 4 m/S 761 mmHg 81%

    Morgen, 12 Dezember, Dienstag

    Zeit Temperatur Niederschläge Wind Luftdruck Luftfeuchtigkeit
    00:00 +20°C° 0 mm 3 m/S 761 mmHg 82%
    01:00 +20°C° 0 mm 3 m/S 761 mmHg 84%
    02:00 +19°C° 0 mm 3 m/S 760 mmHg 85%
    03:00 +19°C° 0 mm 3 m/S 760 mmHg 86%
    04:00 +19°C° 0 mm 3 m/S 760 mmHg 87%
    05:00 +20°C° 0 mm 4 m/S 760 mmHg 81%
    06:00 +22°C° 0 mm 4 m/S 760 mmHg 75%
    07:00 +23°C° 0 mm 4 m/S 761 mmHg 69%
    08:00 +26°C° 0 mm 5 m/S 761 mmHg 63%
    09:00 +27°C° 0 mm 5 m/S 761 mmHg 56%
    10:00 +29°C° 0 mm 5 m/S 761 mmHg 49%
    11:00 +30°C° 0 mm 5 m/S 760 mmHg 47%
    12:00 +32°C° 0 mm 6 m/S 760 mmHg 44%
    13:00 +32°C° 0 mm 6 m/S 760 mmHg 42%
    14:00 +32°C° 0 mm 6 m/S 760 mmHg 43%
    15:00 +30°C° 0 mm 6 m/S 760 mmHg 45%
    16:00 +30°C° 0 mm 6 m/S 759 mmHg 47%
    17:00 +28°C° 0 mm 6 m/S 760 mmHg 55%
    18:00 +26°C° 0 mm 5 m/S 760 mmHg 63%
    19:00 +23°C° 0 mm 4 m/S 760 mmHg 70%
    20:00 +23°C° 0 mm 4 m/S 760 mmHg 75%
    21:00 +22°C° 0 mm 4 m/S 761 mmHg 79%
    22:00 +21°C° 0 mm 4 m/S 761 mmHg 83%
    23:00 +21°C° 0 mm 3 m/S 761 mmHg 85%

    übermorgen, 13 Dezember, Mittwoch

    Zeit Temperatur Niederschläge Wind Luftdruck Luftfeuchtigkeit
    00:00 +21°C° 0 mm 3 m/S 760 mmHg 86%
    01:00 +20°C° 0 mm 3 m/S 760 mmHg 88%
    02:00 +20°C° 0 mm 3 m/S 760 mmHg 88%
    03:00 +20°C° 0 mm 3 m/S 760 mmHg 89%
    04:00 +20°C° 0 mm 3 m/S 759 mmHg 89%
    05:00 +21°C° 0 mm 3 m/S 760 mmHg 84%
    06:00 +22°C° 0 mm 3 m/S 760 mmHg 79%
    07:00 +24°C° 0 mm 3 m/S 760 mmHg 74%
    08:00 +26°C° 0 mm 3 m/S 760 mmHg 65%
    09:00 +28°C° 0 mm 4 m/S 760 mmHg 57%
    10:00 +30°C° 0 mm 4 m/S 760 mmHg 48%
    11:00 +32°C° 0 mm 4 m/S 759 mmHg 45%
    12:00 +32°C° 0 mm 4 m/S 759 mmHg 42%
    13:00 +33°C° 0 mm 5 m/S 759 mmHg 39%
    14:00 +33°C° 0 mm 5 m/S 758 mmHg 41%
    15:00 +32°C° 0 mm 5 m/S 758 mmHg 43%
    16:00 +30°C° 0 mm 5 m/S 758 mmHg 45%
    17:00 +28°C° 0 mm 4 m/S 758 mmHg 54%
    18:00 +26°C° 0 mm 4 m/S 759 mmHg 62%
    19:00 +25°C° 0 mm 3 m/S 759 mmHg 70%
    20:00 +24°C° 0 mm 3 m/S 759 mmHg 75%
    21:00 +22°C° 0 mm 3 m/S 760 mmHg 80%
    22:00 +21°C° 0 mm 2 m/S 760 mmHg 84%
    23:00 +21°C° 0 mm 2 m/S 760 mmHg 85%

    14 Dezember, Donnerstag

    Zeit Temperatur Niederschläge Wind Luftdruck Luftfeuchtigkeit
    00:00 +21°C° 0 mm 2 m/S 759 mmHg 85%
    01:00 +22°C° 0 mm 1 m/S 759 mmHg 86%
    02:00 +21°C° 0 mm 1 m/S 759 mmHg 87%
    03:00 +21°C° 0 mm 1 m/S 759 mmHg 89%
    04:00 +20°C° 0 mm 1 m/S 758 mmHg 90%
    05:00 +21°C° 0 mm 2 m/S 759 mmHg 84%
    06:00 +23°C° 0 mm 2 m/S 759 mmHg 78%
    07:00 +25°C° 0 mm 2 m/S 759 mmHg 71%
    08:00 +27°C° 0 mm 2 m/S 759 mmHg 62%
    09:00 +29°C° 0 mm 2 m/S 759 mmHg 52%
    10:00 +31°C° 0 mm 2 m/S 759 mmHg 43%
    11:00 +33°C° 0 mm 3 m/S 758 mmHg 40%
    12:00 +34°C° 0 mm 3 m/S 757 mmHg 38%
    13:00 +34°C° 0 mm 3 m/S 757 mmHg 35%
    14:00 +34°C° 0 mm 3 m/S 756 mmHg 38%
    15:00 +33°C° 0 mm 4 m/S 756 mmHg 41%
    16:00 +33°C° 0 mm 4 m/S 756 mmHg 44%
    17:00 +30°C° 0 mm 4 m/S 756 mmHg 55%
    18:00 +27°C° 0 mm 3 m/S 757 mmHg 65%
    19:00 +25°C° 0 mm 3 m/S 757 mmHg 76%
    20:00 +25°C° 0 mm 3 m/S 758 mmHg 81%
    21:00 +24°C° 0 mm 2 m/S 758 mmHg 86%
    22:00 +23°C° 0 mm 2 m/S 759 mmHg 90%
    23:00 +24°C° 0 mm 2 m/S 758 mmHg 90%

    15 Dezember, Freitag

    Zeit Temperatur Niederschläge Wind Luftdruck Luftfeuchtigkeit
    00:00 +24°C° 0 mm 2 m/S 758 mmHg 90%
    01:00 +24°C° 0 mm 1 m/S 758 mmHg 90%
    02:00 +24°C° 0,1 mm 1 m/S 758 mmHg 90%
    03:00 +23°C° 0,1 mm 1 m/S 758 mmHg 91%
    04:00 +23°C° 0,1 mm 1 m/S 758 mmHg 91%
    05:00 +25°C° 0 mm 1 m/S 758 mmHg 85%
    06:00 +26°C° 0 mm 1 m/S 758 mmHg 79%
    07:00 +27°C° 0 mm 1 m/S 759 mmHg 73%
    08:00 +28°C° 0 mm 1 m/S 759 mmHg 65%
    09:00 +30°C° 0 mm 2 m/S 759 mmHg 58%
    10:00 +31°C° 0 mm 2 m/S 758 mmHg 50%
    11:00 +33°C° 0 mm 3 m/S 758 mmHg 47%
    12:00 +34°C° 0 mm 3 m/S 757 mmHg 43%
    13:00 +35°C° 0 mm 3 m/S 757 mmHg 40%
    14:00 +34°C° 0 mm 4 m/S 757 mmHg 43%
    15:00 +34°C° 0 mm 4 m/S 756 mmHg 46%
    16:00 +33°C° 0 mm 5 m/S 756 mmHg 49%
    17:00 +30°C° 0 mm 4 m/S 757 mmHg 59%
    18:00 +28°C° 0 mm 4 m/S 757 mmHg 68%
    19:00 +26°C° 0 mm 4 m/S 758 mmHg 77%
    20:00 +25°C° 0 mm 3 m/S 759 mmHg 81%
    21:00 +25°C° 0 mm 3 m/S 759 mmHg 85%
    22:00 +24°C° 0 mm 3 m/S 760 mmHg 89%
    23:00 +24°C° 0 mm 3 m/S 759 mmHg 89%

    16 Dezember, Samstag

    Zeit Temperatur Niederschläge Wind Luftdruck Luftfeuchtigkeit
    00:00 +24°C° 0 mm 2 m/S 759 mmHg 89%
    01:00 +24°C° 0 mm 2 m/S 759 mmHg 89%
    02:00 +23°C° 0,1 mm 2 m/S 759 mmHg 89%
    03:00 +23°C° 0,1 mm 1 m/S 759 mmHg 89%
    04:00 +23°C° 0,1 mm 1 m/S 759 mmHg 89%
    05:00 +24°C° 0 mm 1 m/S 759 mmHg 83%
    06:00 +25°C° 0 mm 1 m/S 760 mmHg 77%
    07:00 +27°C° 0 mm 2 m/S 760 mmHg 72%
    08:00 +28°C° 0 mm 2 m/S 760 mmHg 63%
    09:00 +30°C° 0 mm 3 m/S 760 mmHg 54%
    10:00 +33°C° 0 mm 3 m/S 760 mmHg 46%
    11:00 +33°C° 0 mm 3 m/S 759 mmHg 44%
    12:00 +34°C° 0 mm 3 m/S 758 mmHg 41%
    13:00 +35°C° 0 mm 3 m/S 758 mmHg 39%
    14:00 +34°C° 0 mm 4 m/S 758 mmHg 42%
    15:00 +33°C° 0 mm 4 m/S 757 mmHg 45%
    16:00 +32°C° 0 mm 4 m/S 757 mmHg 47%
    17:00 +30°C° 0 mm 4 m/S 758 mmHg 56%
    18:00 +28°C° 0 mm 4 m/S 758 mmHg 64%
    19:00 +26°C° 0 mm 3 m/S 758 mmHg 72%
    20:00 +25°C° 0 mm 3 m/S 759 mmHg 76%
    21:00 +25°C° 0 mm 3 m/S 759 mmHg 80%
    22:00 +24°C° 0 mm 2 m/S 760 mmHg 84%
    23:00 +24°C° 0 mm 2 m/S 759 mmHg 85%
    Mehr zeigen